Terminal Aerodrome Forecast
Issued by NWS Dodge City, KS

Home | Current Version | Previous Version | Graphics & Text | Print | Product List | Glossary Off
Versions: 1 2 3 4 5 6 7 8 9 10 11 12 13 14 15 16 17 18

000
FTUS43 KDDC 271135 AAA
TAFDDC
TAF AMD
KDDC 271135Z 2712/2812 01010KT P6SM VCSH OVC005
      TEMPO 2712/2715 2SM BR
     FM271500 02009KT P6SM VCSH OVC010
     FM271800 03009KT P6SM OVC015
     FM272100 04007KT P6SM VCTS BKN030CB
     FM280000 05007KT P6SM VCSH BKN040=

USA.gov is the U.S. government's official web portal to all federal, state and local government web resources and services.